カタログに戻る

BSAT-4B

運用中通信GEO
NORAD 46112·PAYLOAD·🇯🇵 Japan

打ち上げ Aug 15, 2020 から Guiana Space Centre

Loading…

TLE

最新Source: Space-Track

元期: Sep 14, 2026, 14:19 UTC

1 46112U 20056A   26257.59685443 -.00000358  00000-0  00000-0 0  9990
2 46112   0.0205 184.5218 0004134 329.9703 163.7751  1.00270489 22282

AllMySatでBSAT-4Bをリアルタイム追跡

Download on the App Store